THORAD DELTA 1 DEB, 8296

Orbit data source: Space-Track

THORAD DELTA 1 DEB, 8296 is space debris in SSO originally from a launch on Fri, 15 Nov 1974 UTC launched from the Air Force Western Test Range (AFWTR). Debris objects in space refer to the collection of defunct objects orbiting the Earth. Examples of debris include non-operational satellites, rocket bodies, and fragments generated from explosions, collisions, or faulty payload assembly.

Loading next visibility...
Identifier
8296, 1974-089BD
Orbit
SSO
Country
Flag of USUS
Related business
Manufacturer
Unknown
Mission
Spacecraft
Bus & Motor
Unknown
Mass
Unknown
Launch date (UTC)
1974-11-15 (51 years ago)
Launch vehicle
Unknown
Launch site
Air Force Western Test Range (AFWTR)
Object type
Payload
Rocket body
Debris
Shape & HBR
Unknown shape, 0.1 m
Radar Cross Section
Small (<0.1 m²)

Expand to show TLE details & history
Last TLE update: 1 day ago

TLE from 1 day ago
0 THORAD DELTA 1 DEB
1 08296U 74089BD  25299.76749986  .00000378  00000-0  31992-2 0  9990
2 08296 102.5401 114.4856 0223137 238.7099 133.3094 12.33202531319687
Epoch: 2025-10-26T18:25Z
TLE epoch observation values (Epoch: 2025-10-26T18:25:11.987Z)
Latitude
13.47958°
Longitude
159.76506°
Altitude
1,660.521 km
Speed
6.989 km/s
True Right ascension
07h 25m 46s
True Declination
13° 24' 38"
Sunlit
Object was in daylight at epoch
Visualization orbit readout
Latitude
Unknown
Longitude
Unknown
Altitude
Unknown
Speed
Unknown
Apparent Right ascension
Unknown
Apparent Declination
Unknown
Sunlit
N/A
Visualization observer readout
Local Sidereal Time
19:18:37
Azimuth
Unknown
Elevation
Unknown
Doppler factor
Unknown
Orbital elements
Apogee altitude
1,709.696 km
Perigee altitude
1,356.635 km
Semi-major axis
7,911.302 km
Eccentricity
0.02231
Inclination
102.5401°
RAAN
114.4856°
Arg. of periapsis
238.7099°
True anomaly
135.13474°
Mean anomaly
133.3094°
Eccentric anomaly
134.22556°
Mean motion
3.0844 °/min
Orbital period
116.72 mins
BSTAR
0.0031992
Loading maneuver chart data...
Computing Atmospheric mass density...

Documentation

Showing up to 5 results
|